EWG7SV EDDH-LEIB

Flight info

Callsign EWG7SV
Flight time N/A
Altitude 23000
Route IDEKO8C IDEKO N850 PIROT/N0456F350 N850 XAROL/N0457F360 DCT BOMBI DCT GIGET DCT ABUKA DCT KRH DCT NATOR/N0458F370 DCT LUTIX DCT BENOT DCT NEMOS DCT GEVEA DCT INCUS DCT BALSI DCT RETNO DCT TUPOX DCT MTG DCT DIVKO DCT VATIR/N0463F310 DCT PIVUS DCT SULID DCT DIMIB DCT POS
Aircraft A320/M-SDE3FGHIRWY/LB1

Departure

Time N/A
Airport Hamburg Helmut Schmidt Airport (EDDH)

Arrival

Time 2026-05-06 13:02
Airport Ibiza Airport (LEIB)
Time Latitude Longitude Altitude Speed Heading
2026-05-06 12:36 39.87158 3.07386 35020 ft 452 kts 211°
2026-05-06 12:36 39.84053 3.05118 35019 ft 452 kts 211°
2026-05-06 12:37 39.78548 3.01125 35020 ft 453 kts 211°
2026-05-06 12:37 39.73080 2.97172 35016 ft 452 kts 211°
2026-05-06 12:38 39.67580 2.93190 35012 ft 452 kts 211°
2026-05-06 12:38 39.62084 2.89206 35014 ft 453 kts 211°
2026-05-06 12:39 39.56576 2.85223 35018 ft 453 kts 211°
2026-05-06 12:39 39.51061 2.81261 35016 ft 453 kts 211°
2026-05-06 12:40 39.46480 2.77965 35011 ft 453 kts 212°
2026-05-06 12:40 39.41650 2.72829 35010 ft 449 kts 230°
2026-05-06 12:41 39.37717 2.66584 35014 ft 448 kts 232°
2026-05-06 12:41 39.33780 2.60350 35017 ft 448 kts 232°
2026-05-06 12:42 39.29829 2.54113 34916 ft 448 kts 232°
2026-05-06 12:42 39.27852 2.50994 34663 ft 448 kts 232°
2026-05-06 12:42 39.25880 2.47880 34412 ft 448 kts 232°
2026-05-06 12:43 39.23908 2.44765 34163 ft 448 kts 232°
2026-05-06 12:43 39.21932 2.41648 33913 ft 449 kts 232°
2026-05-06 12:43 39.19979 2.38574 33667 ft 449 kts 232°
2026-05-06 12:43 39.17995 2.35459 33418 ft 450 kts 232°
2026-05-06 12:44 39.16011 2.32344 33175 ft 450 kts 232°
2026-05-06 12:44 39.14022 2.29215 32834 ft 450 kts 232°
2026-05-06 12:44 39.12031 2.26083 31845 ft 454 kts 232°
2026-05-06 12:44 39.10018 2.22924 30879 ft 456 kts 232°
2026-05-06 12:45 39.08000 2.19762 29911 ft 458 kts 232°
2026-05-06 12:45 39.05969 2.16588 28831 ft 460 kts 232°
2026-05-06 12:45 39.01871 2.10198 26484 ft 465 kts 231°
2026-05-06 12:46 38.99805 2.06985 25243 ft 467 kts 231°
2026-05-06 12:46 38.97744 2.03778 24353 ft 461 kts 231°
2026-05-06 12:46 38.95716 2.00621 23519 ft 454 kts 232°
2026-05-06 12:46 38.93722 1.97514 22678 ft 448 kts 232°
2026-05-06 12:47 38.91887 1.94316 21843 ft 441 kts 239°
2026-05-06 12:47 38.90498 1.90841 21030 ft 434 kts 248°
2026-05-06 12:47 38.89563 1.87185 20226 ft 428 kts 256°
2026-05-06 12:47 38.88814 1.83508 19423 ft 423 kts 256°
2026-05-06 12:48 38.88072 1.79880 18633 ft 418 kts 256°
2026-05-06 12:48 38.87336 1.76300 17863 ft 413 kts 256°
2026-05-06 12:48 38.86710 1.73272 17232 ft 408 kts 256°
2026-05-06 12:48 38.85997 1.69815 16544 ft 404 kts 256°
2026-05-06 12:49 38.85280 1.66349 15860 ft 399 kts 256°
2026-05-06 12:49 38.84570 1.62928 15213 ft 395 kts 256°
2026-05-06 12:49 38.83863 1.59534 14572 ft 392 kts 255°
2026-05-06 12:49 38.83150 1.56179 13930 ft 388 kts 255°
2026-05-06 12:50 38.82423 1.52863 13277 ft 384 kts 255°
2026-05-06 12:50 38.81695 1.49619 12992 ft 370 kts 254°
2026-05-06 12:50 38.80997 1.46532 12863 ft 352 kts 254°
2026-05-06 12:50 38.80305 1.43591 12735 ft 337 kts 250°
2026-05-06 12:51 38.79327 1.40927 12607 ft 323 kts 243°
2026-05-06 12:51 38.78292 1.38437 12481 ft 310 kts 243°
2026-05-06 12:51 38.77298 1.36038 12355 ft 299 kts 243°
2026-05-06 12:51 38.76341 1.33724 12228 ft 289 kts 243°
2026-05-06 12:52 38.75415 1.31488 12102 ft 279 kts 243°
2026-05-06 12:52 38.74520 1.29330 11971 ft 270 kts 243°
2026-05-06 12:52 38.73649 1.27239 11852 ft 262 kts 243°
2026-05-06 12:52 38.72806 1.25216 11693 ft 254 kts 243°
2026-05-06 12:53 38.71982 1.23235 11496 ft 250 kts 243°
2026-05-06 12:53 38.71174 1.21289 11139 ft 246 kts 243°
2026-05-06 12:53 38.70370 1.19360 10633 ft 245 kts 243°
2026-05-06 12:53 38.69570 1.17443 10135 ft 243 kts 243°
2026-05-06 12:54 38.68777 1.15544 9652 ft 241 kts 243°
2026-05-06 12:54 38.67999 1.13681 9169 ft 239 kts 243°
2026-05-06 12:54 38.67217 1.11809 8716 ft 235 kts 243°
2026-05-06 12:54 38.66642 1.09951 8503 ft 218 kts 265°
2026-05-06 12:55 38.66885 1.08100 8071 ft 213 kts 298°
2026-05-06 12:55 38.67920 1.06774 7557 ft 216 kts 332°
2026-05-06 12:55 38.69401 1.06448 7034 ft 223 kts
2026-05-06 12:55 38.70906 1.06995 6498 ft 227 kts 17°
2026-05-06 12:56 38.72370 1.07729 6160 ft 221 kts 19°
2026-05-06 12:56 38.73680 1.08655 5908 ft 214 kts 36°
2026-05-06 12:56 38.74789 1.09923 5508 ft 214 kts 41°
2026-05-06 12:56 38.75851 1.11246 5103 ft 213 kts 41°
2026-05-06 12:57 38.76878 1.12606 4690 ft 213 kts 51°
2026-05-06 12:57 38.77670 1.14203 4300 ft 212 kts 59°
2026-05-06 12:57 38.78374 1.15869 3970 ft 212 kts 60°
2026-05-06 12:57 38.79043 1.17481 3878 ft 199 kts 60°
2026-05-06 12:58 38.79675 1.18999 3730 ft 186 kts 60°
2026-05-06 12:58 38.80266 1.20419 3590 ft 174 kts 60°
2026-05-06 12:58 38.80803 1.21709 3388 ft 157 kts 59°
2026-05-06 12:58 38.81312 1.22929 3026 ft 154 kts 59°
2026-05-06 12:59 38.81815 1.24136 2649 ft 153 kts 59°
2026-05-06 12:59 38.82314 1.25337 2267 ft 152 kts 60°
2026-05-06 12:59 38.82810 1.26527 1887 ft 151 kts 60°
2026-05-06 12:59 38.83302 1.27710 1549 ft 150 kts 60°
2026-05-06 13:00 38.83792 1.28890 1293 ft 150 kts 60°
2026-05-06 13:00 38.84281 1.30069 1073 ft 150 kts 60°
2026-05-06 13:00 38.84771 1.31248 852 ft 149 kts 60°
2026-05-06 13:00 38.85258 1.32419 659 ft 149 kts 60°
2026-05-06 13:01 38.85743 1.33583 472 ft 148 kts 60°
2026-05-06 13:01 38.86223 1.34741 254 ft 146 kts 60°
2026-05-06 13:01 38.86696 1.35885 62 ft 145 kts 61°
2026-05-06 13:01 38.87078 1.36818 10 ft 128 kts 61°
2026-05-06 13:02 38.87426 1.37652 4 ft 82 kts 62°
2026-05-06 13:02 38.87627 1.38144 7 ft 35 kts 62°
2026-05-06 13:02 38.87702 1.38246 6 ft 13 kts 13°
2026-05-06 13:02 38.87779 1.38205 8 ft 13 kts 330°
2026-05-06 13:03 38.87806 1.38121 8 ft 12 kts 242°
2026-05-06 13:03 38.87761 1.38010 8 ft 16 kts 244°
2026-05-06 13:03 38.87705 1.37875 8 ft 19 kts 242°
2026-05-06 13:03 38.87644 1.37725 8 ft 19 kts 242°
2026-05-06 13:04 38.87589 1.37600 8 ft 11 kts 242°
2026-05-06 13:04 38.87630 1.37524 8 ft 13 kts 334°
2026-05-06 13:04 38.87697 1.37444 8 ft 14 kts 273°
2026-05-06 13:04 38.87651 1.37316 8 ft 17 kts 241°
2026-05-06 13:05 38.87591 1.37173 9 ft 18 kts 242°
2026-05-06 13:05 38.87535 1.37035 8 ft 13 kts 242°
2026-05-06 13:05 38.87515 1.36946 8 ft 8 kts 313°
2026-05-06 13:05 38.87554 1.36924 8 ft 3 kts 334°
2026-05-06 13:06 38.87559 1.36921 8 ft 0 kts 333°